Time,TemperatureF,DewpointF,PressureIn,WindDirection,WindDirectionDegrees,WindSpeedMPH,WindSpeedGustMPH,Humidity,HourlyPrecipIn,Conditions,Clouds,dailyrainin,SoftwareType,DateUTC
2013-10-18 00:00:00,48.0,47.8,29.97,SW,225,0.0,1.6,99,0.00,,,0.00,pywws,2013-10-17 23:00:00,
2013-10-18 00:01:00,48.0,47.8,29.98,SW,225,0.0,0.0,99,0.00,,,0.00,pywws,2013-10-17 23:01:00,
2013-10-18 00:06:00,48.0,47.8,29.98,SW,225,0.0,0.0,99,0.00,,,0.00,pywws,2013-10-17 23:06:00,
2013-10-18 00:11:00,48.0,47.8,29.99,SW,225,0.0,0.0,99,0.00,,,0.00,pywws,2013-10-17 23:11:00,
2013-10-18 00:16:00,48.0,47.8,29.99,SW,225,0.0,0.0,99,0.00,,,0.00,pywws,2013-10-17 23:16:00,
2013-10-18 00:21:00,48.0,47.8,29.99,SW,225,0.0,0.0,99,0.00,,,0.00,pywws,2013-10-17 23:21:00,
2013-10-18 00:26:00,48.0,47.8,29.99,SW,225,0.0,0.0,99,0.00,,,0.00,pywws,2013-10-17 23:26:00,
2013-10-18 00:31:00,48.0,47.8,29.99,SW,225,0.0,0.0,99,0.00,,,0.00,pywws,2013-10-17 23:31:00,
2013-10-18 00:36:00,48.0,47.8,29.99,SW,225,0.0,0.0,99,0.00,,,0.00,pywws,2013-10-17 23:36:00,
2013-10-18 00:41:00,48.0,47.8,30.00,SE,135,0.0,0.7,99,0.00,,,0.00,pywws,2013-10-17 23:41:00,
2013-10-18 00:46:00,48.0,47.8,30.00,SE,135,0.0,0.0,99,0.00,,,0.00,pywws,2013-10-17 23:46:00,
2013-10-18 01:00:00,48.0,47.8,30.00,SE,135,0.0,0.0,99,0.00,,,0.00,pywws,2013-10-18 00:00:00,
2013-10-18 01:01:00,48.0,47.8,30.00,East,90,0.0,0.7,99,0.00,,,0.00,pywws,2013-10-18 00:01:00,
2013-10-18 01:06:00,48.0,47.8,30.00,SE,135,0.0,0.7,99,0.00,,,0.00,pywws,2013-10-18 00:06:00,
2013-10-18 01:11:00,48.0,47.8,30.00,West,270,0.0,0.7,99,0.00,,,0.00,pywws,2013-10-18 00:11:00,
2013-10-18 01:16:00,48.0,47.8,30.00,SW,225,0.0,1.6,99,0.00,,,0.00,pywws,2013-10-18 00:16:00,
2013-10-18 01:21:00,48.0,47.8,30.00,SW,225,0.7,1.6,99,0.00,,,0.00,pywws,2013-10-18 00:21:00,
2013-10-18 01:26:00,48.0,47.8,30.00,SW,225,0.0,1.6,99,0.00,,,0.00,pywws,2013-10-18 00:26:00,
2013-10-18 01:31:00,48.0,47.8,30.00,West,270,0.0,0.7,99,0.00,,,0.00,pywws,2013-10-18 00:31:00,
2013-10-18 01:36:00,48.0,47.8,30.00,North,0,0.0,0.7,99,0.00,,,0.00,pywws,2013-10-18 00:36:00,
2013-10-18 01:41:00,48.0,47.8,29.99,NE,45,0.0,2.2,99,0.00,,,0.00,pywws,2013-10-18 00:41:00,
2013-10-18 01:46:00,48.0,47.8,29.99,SW,225,0.0,0.0,99,0.00,,,0.00,pywws,2013-10-18 00:46:00,
2013-10-18 02:00:00,48.0,47.8,29.99,SW,225,0.0,1.6,99,0.00,,,0.00,pywws,2013-10-18 01:00:00,
2013-10-18 02:01:00,48.0,47.8,30.00,SW,225,0.0,0.7,99,0.00,,,0.00,pywws,2013-10-18 01:01:00,
2013-10-18 02:06:00,47.8,47.6,29.99,SW,225,0.0,1.6,99,0.00,,,0.00,pywws,2013-10-18 01:06:00,
2013-10-18 02:11:00,47.8,47.6,29.99,NW,315,0.0,0.7,99,0.00,,,0.00,pywws,2013-10-18 01:11:00,
2013-10-18 02:16:00,47.8,47.6,29.99,SW,225,0.0,0.0,99,0.00,,,0.00,pywws,2013-10-18 01:16:00,
2013-10-18 02:21:00,47.8,47.6,30.00,SW,225,0.0,0.0,99,0.00,,,0.00,pywws,2013-10-18 01:21:00,
2013-10-18 02:26:00,47.8,47.6,29.99,SW,225,0.0,0.0,99,0.00,,,0.00,pywws,2013-10-18 01:26:00,
2013-10-18 02:31:00,47.8,47.6,30.00,SW,225,0.0,0.0,99,0.00,,,0.00,pywws,2013-10-18 01:31:00,
2013-10-18 02:36:00,47.8,47.6,30.00,SW,225,0.0,1.6,99,0.00,,,0.00,pywws,2013-10-18 01:36:00,
2013-10-18 02:41:00,47.8,47.6,30.00,SW,225,0.0,0.7,99,0.00,,,0.00,pywws,2013-10-18 01:41:00,
2013-10-18 02:46:00,47.8,47.6,30.01,SW,225,0.0,1.6,99,0.00,,,0.00,pywws,2013-10-18 01:46:00,
2013-10-18 03:00:00,47.8,47.6,30.01,SW,225,0.0,0.0,99,0.00,,,0.00,pywws,2013-10-18 02:00:00,
2013-10-18 03:01:00,47.8,47.6,30.01,SW,225,0.0,0.0,99,0.00,,,0.00,pywws,2013-10-18 02:01:00,
2013-10-18 03:06:00,47.8,47.6,30.01,SW,225,0.0,0.0,99,0.00,,,0.00,pywws,2013-10-18 02:06:00,
2013-10-18 03:11:00,47.8,47.6,30.01,SW,225,0.0,0.0,99,0.00,,,0.00,pywws,2013-10-18 02:11:00,
2013-10-18 03:16:00,47.8,47.6,30.01,SW,225,0.0,1.6,99,0.00,,,0.00,pywws,2013-10-18 02:16:00,
2013-10-18 03:21:00,47.8,47.6,30.01,WSW,248,0.0,0.0,99,0.00,,,0.00,pywws,2013-10-18 02:21:00,
2013-10-18 03:26:00,47.8,47.6,30.01,SW,225,0.0,0.7,99,0.00,,,0.00,pywws,2013-10-18 02:26:00,
2013-10-18 03:31:00,47.8,47.6,30.01,West,270,0.0,0.7,99,0.00,,,0.00,pywws,2013-10-18 02:31:00,
2013-10-18 03:36:00,48.0,47.8,30.01,North,0,0.0,0.7,99,0.00,,,0.00,pywws,2013-10-18 02:36:00,
2013-10-18 03:41:00,47.8,47.6,30.01,North,0,0.0,1.6,99,0.00,,,0.00,pywws,2013-10-18 02:41:00,
2013-10-18 03:46:00,47.8,47.6,30.00,SSW,202,0.7,2.2,99,0.00,,,0.00,pywws,2013-10-18 02:46:00,
2013-10-18 04:00:00,47.8,47.6,29.99,East,90,0.0,0.7,99,0.00,,,0.00,pywws,2013-10-18 03:00:00,
2013-10-18 04:01:00,47.8,47.6,30.00,NW,315,0.0,0.0,99,0.00,,,0.00,pywws,2013-10-18 03:01:00,
2013-10-18 04:06:00,47.8,47.6,29.99,SW,225,0.0,0.7,99,0.00,,,0.00,pywws,2013-10-18 03:06:00,
2013-10-18 04:11:00,47.7,47.4,30.00,North,0,0.0,0.7,99,0.00,,,0.00,pywws,2013-10-18 03:11:00,
2013-10-18 04:16:00,47.7,47.4,29.99,North,0,0.0,0.0,99,0.00,,,0.00,pywws,2013-10-18 03:16:00,
2013-10-18 04:21:00,47.7,47.4,30.00,North,0,0.0,0.0,99,0.00,,,0.00,pywws,2013-10-18 03:21:00,
2013-10-18 04:26:00,47.7,47.4,29.99,North,0,0.0,0.0,99,0.00,,,0.00,pywws,2013-10-18 03:26:00,
2013-10-18 04:31:00,47.5,47.2,30.00,North,0,0.0,0.0,99,0.00,,,0.00,pywws,2013-10-18 03:31:00,
2013-10-18 04:36:00,47.5,47.2,29.99,North,0,0.0,0.0,99,0.00,,,0.00,pywws,2013-10-18 03:36:00,
2013-10-18 04:41:00,47.5,47.2,29.99,North,0,0.0,0.0,99,0.00,,,0.00,pywws,2013-10-18 03:41:00,
2013-10-18 04:46:00,47.3,47.0,29.99,North,0,0.0,0.0,99,0.00,,,0.00,pywws,2013-10-18 03:46:00,
2013-10-18 05:00:00,47.3,47.0,29.99,North,0,0.0,0.0,99,0.00,,,0.00,pywws,2013-10-18 04:00:00,
2013-10-18 05:01:00,47.1,46.9,29.99,West,270,0.0,0.7,99,0.00,,,0.00,pywws,2013-10-18 04:01:00,
2013-10-18 05:06:00,47.1,46.9,29.99,SE,135,0.0,0.7,99,0.00,,,0.00,pywws,2013-10-18 04:06:00,
2013-10-18 05:11:00,47.1,46.9,30.00,SE,135,0.0,0.0,99,0.00,,,0.00,pywws,2013-10-18 04:11:00,
2013-10-18 05:16:00,47.1,46.9,30.00,SE,135,0.0,0.0,99,0.00,,,0.00,pywws,2013-10-18 04:16:00,
2013-10-18 05:21:00,47.1,46.9,30.01,SE,135,0.0,0.7,99,0.00,,,0.00,pywws,2013-10-18 04:21:00,
2013-10-18 05:26:00,47.1,46.9,30.00,SE,135,0.0,0.7,99,0.00,,,0.00,pywws,2013-10-18 04:26:00,
2013-10-18 05:31:00,47.1,46.9,30.00,East,90,0.0,0.0,99,0.00,,,0.00,pywws,2013-10-18 04:31:00,
2013-10-18 05:36:00,47.1,46.9,30.00,East,90,0.0,0.0,99,0.00,,,0.00,pywws,2013-10-18 04:36:00,
2013-10-18 05:41:00,47.1,46.9,30.00,East,90,0.0,0.0,99,0.00,,,0.00,pywws,2013-10-18 04:41:00,
2013-10-18 05:46:00,46.9,46.7,30.00,East,90,0.0,0.0,99,0.00,,,0.00,pywws,2013-10-18 04:46:00,
2013-10-18 06:00:00,47.1,46.9,30.00,East,90,0.0,0.0,99,0.00,,,0.00,pywws,2013-10-18 05:00:00,
2013-10-18 06:01:00,46.9,46.7,29.99,East,90,0.0,0.7,99,0.00,,,0.00,pywws,2013-10-18 05:01:00,
2013-10-18 06:06:00,46.9,46.7,29.99,East,90,0.0,0.0,99,0.00,,,0.00,pywws,2013-10-18 05:06:00,
2013-10-18 06:11:00,46.9,46.7,29.99,East,90,0.0,0.0,99,0.00,,,0.00,pywws,2013-10-18 05:11:00,
2013-10-18 06:16:00,46.9,46.7,29.99,East,90,0.0,1.6,99,0.00,,,0.00,pywws,2013-10-18 05:16:00,
2013-10-18 06:21:00,46.9,46.7,29.99,South,180,0.0,0.0,99,0.00,,,0.00,pywws,2013-10-18 05:21:00,
2013-10-18 06:26:00,46.9,46.7,29.99,South,180,0.0,0.0,99,0.00,,,0.00,pywws,2013-10-18 05:26:00,
2013-10-18 06:31:00,46.9,46.7,29.99,South,180,0.0,0.0,99,0.00,,,0.00,pywws,2013-10-18 05:31:00,
2013-10-18 06:36:00,46.9,46.7,30.00,South,180,0.0,0.0,99,0.00,,,0.00,pywws,2013-10-18 05:36:00,
2013-10-18 06:41:00,46.9,46.7,29.99,South,180,0.0,0.0,99,0.00,,,0.00,pywws,2013-10-18 05:41:00,
2013-10-18 06:46:00,46.9,46.7,30.00,South,180,0.0,0.0,99,0.00,,,0.00,pywws,2013-10-18 05:46:00,
2013-10-18 07:00:00,46.9,46.7,30.00,South,180,0.0,0.0,99,0.00,,,0.00,pywws,2013-10-18 06:00:00,
2013-10-18 07:01:00,46.9,46.7,30.00,NW,315,0.0,0.0,99,0.00,,,0.00,pywws,2013-10-18 06:01:00,
2013-10-18 07:06:00,46.9,46.7,30.00,North,0,0.0,0.7,99,0.00,,,0.00,pywws,2013-10-18 06:06:00,
2013-10-18 07:11:00,46.9,46.7,30.00,NW,315,0.0,0.7,99,0.00,,,0.00,pywws,2013-10-18 06:11:00,
2013-10-18 07:16:00,46.9,46.7,30.00,NW,315,0.0,1.6,99,0.00,,,0.00,pywws,2013-10-18 06:16:00,
2013-10-18 07:21:00,46.9,46.7,30.00,NW,315,0.0,1.6,99,0.00,,,0.00,pywws,2013-10-18 06:21:00,
2013-10-18 07:26:00,46.9,46.7,30.00,North,0,0.0,1.6,99,0.00,,,0.00,pywws,2013-10-18 06:26:00,
2013-10-18 07:31:00,46.9,46.7,30.00,North,0,0.0,0.7,99,0.00,,,0.00,pywws,2013-10-18 06:31:00,
2013-10-18 07:36:00,46.9,46.7,29.99,North,0,0.0,0.7,99,0.00,,,0.00,pywws,2013-10-18 06:36:00,
2013-10-18 07:41:00,46.9,46.7,30.00,NW,315,0.7,1.6,99,0.00,,,0.00,pywws,2013-10-18 06:41:00,
2013-10-18 07:46:00,46.9,46.7,30.01,North,0,0.0,1.6,99,0.00,,,0.00,pywws,2013-10-18 06:46:00,
2013-10-18 08:00:00,46.9,46.7,30.00,NW,315,0.0,0.7,99,0.00,,,0.00,pywws,2013-10-18 07:00:00,
2013-10-18 08:01:00,46.8,46.5,30.01,North,0,0.0,0.0,99,0.00,,,0.00,pywws,2013-10-18 07:01:00,
2013-10-18 08:06:00,46.6,46.3,30.00,North,0,0.0,0.7,99,0.00,,,0.00,pywws,2013-10-18 07:06:00,
2013-10-18 08:11:00,46.6,46.3,30.00,North,0,0.0,0.0,99,0.00,,,0.00,pywws,2013-10-18 07:11:00,
2013-10-18 08:16:00,46.6,46.3,30.00,North,0,0.0,0.7,99,0.00,,,0.00,pywws,2013-10-18 07:16:00,
2013-10-18 08:21:00,46.6,46.3,30.00,West,270,0.0,0.7,99,0.00,,,0.00,pywws,2013-10-18 07:21:00,
2013-10-18 08:26:00,46.6,46.3,30.00,North,0,0.0,0.0,99,0.00,,,0.00,pywws,2013-10-18 07:26:00,
2013-10-18 08:31:00,46.6,46.3,30.00,East,90,0.0,1.6,99,0.00,,,0.00,pywws,2013-10-18 07:31:00,
2013-10-18 08:36:00,46.6,46.3,30.00,West,270,0.0,1.6,99,0.00,,,0.00,pywws,2013-10-18 07:36:00,
2013-10-18 08:41:00,46.8,46.5,30.00,East,90,0.0,0.7,99,0.00,,,0.00,pywws,2013-10-18 07:41:00,
2013-10-18 08:46:00,46.8,46.5,30.00,SW,225,0.7,1.6,99,0.00,,,0.00,pywws,2013-10-18 07:46:00,
2013-10-18 08:51:00,46.8,46.5,30.01,SW,225,0.0,0.7,99,0.00,,,0.00,pywws,2013-10-18 07:51:00,
2013-10-18 09:01:00,46.9,46.7,30.00,South,180,0.0,0.7,99,0.00,,,0.00,pywws,2013-10-18 08:01:00,
2013-10-18 09:06:00,47.1,46.9,30.01,SW,225,0.0,1.6,99,0.00,,,0.00,pywws,2013-10-18 08:06:00,
2013-10-18 09:11:00,47.3,47.0,30.00,West,270,0.0,0.7,99,0.00,,,0.00,pywws,2013-10-18 08:11:00,
2013-10-18 09:16:00,47.5,47.2,30.00,SW,225,0.0,0.7,99,0.00,,,0.00,pywws,2013-10-18 08:16:00,
2013-10-18 09:21:00,47.7,47.4,30.00,East,90,0.0,0.7,99,0.00,,,0.00,pywws,2013-10-18 08:21:00,
2013-10-18 09:26:00,47.8,47.6,30.00,South,180,0.0,1.6,99,0.00,,,0.00,pywws,2013-10-18 08:26:00,
2013-10-18 09:31:00,48.2,47.9,30.00,NE,45,0.0,0.7,99,0.00,,,0.00,pywws,2013-10-18 08:31:00,
2013-10-18 09:36:00,48.6,48.3,30.00,NW,315,0.0,0.0,99,0.00,,,0.00,pywws,2013-10-18 08:36:00,
2013-10-18 09:41:00,48.9,48.7,30.00,South,180,0.0,0.0,99,0.00,,,0.00,pywws,2013-10-18 08:41:00,
2013-10-18 09:46:00,49.1,48.8,30.00,South,180,0.0,0.7,99,0.00,,,0.00,pywws,2013-10-18 08:46:00,
2013-10-18 10:00:00,49.3,49.0,30.00,SW,225,0.7,1.6,99,0.00,,,0.00,pywws,2013-10-18 09:00:00,
2013-10-18 10:01:00,49.8,49.5,30.00,SE,135,0.0,0.7,99,0.00,,,0.00,pywws,2013-10-18 09:01:00,
2013-10-18 10:06:00,50.0,49.7,30.00,WSW,248,0.0,1.6,99,0.00,,,0.00,pywws,2013-10-18 09:06:00,
2013-10-18 10:11:00,50.0,49.7,30.00,SSW,202,0.7,2.2,99,0.00,,,0.00,pywws,2013-10-18 09:11:00,
2013-10-18 10:16:00,50.2,49.9,30.00,ENE,68,0.7,2.2,99,0.00,,,0.00,pywws,2013-10-18 09:16:00,
2013-10-18 10:21:00,50.2,49.9,30.00,West,270,0.0,1.6,99,0.00,,,0.00,pywws,2013-10-18 09:21:00,
2013-10-18 10:26:00,50.2,49.9,30.00,West,270,0.0,2.2,99,0.00,,,0.00,pywws,2013-10-18 09:26:00,
2013-10-18 10:31:00,50.2,49.9,30.00,SW,225,0.0,1.6,99,0.00,,,0.00,pywws,2013-10-18 09:31:00,
2013-10-18 10:36:00,50.5,50.3,30.00,NE,45,0.0,0.7,99,0.00,,,0.00,pywws,2013-10-18 09:36:00,
2013-10-18 10:41:00,50.5,50.3,30.00,East,90,0.7,2.2,99,0.00,,,0.00,pywws,2013-10-18 09:41:00,
2013-10-18 10:46:00,50.5,50.3,29.99,West,270,0.7,1.6,99,0.00,,,0.00,pywws,2013-10-18 09:46:00,
2013-10-18 11:00:00,50.7,50.4,30.00,SSW,202,0.0,1.6,99,0.00,,,0.00,pywws,2013-10-18 10:00:00,
2013-10-18 11:01:00,51.3,51.0,29.99,NW,315,0.0,1.6,99,0.00,,,0.00,pywws,2013-10-18 10:01:00,
2013-10-18 11:06:00,51.6,51.3,29.99,South,180,0.7,3.8,99,0.00,,,0.00,pywws,2013-10-18 10:06:00,
2013-10-18 11:11:00,52.0,51.7,29.99,SW,225,2.2,3.8,99,0.00,,,0.00,pywws,2013-10-18 10:11:00,
2013-10-18 11:16:00,52.0,51.7,29.99,North,0,0.0,1.6,99,0.00,,,0.00,pywws,2013-10-18 10:16:00,
2013-10-18 11:21:00,52.7,52.4,29.99,North,0,0.0,0.7,99,0.00,,,0.00,pywws,2013-10-18 10:21:00,
2013-10-18 11:26:00,53.1,52.8,29.99,NE,45,0.7,3.8,99,0.00,,,0.00,pywws,2013-10-18 10:26:00,
2013-10-18 11:31:00,53.1,52.8,29.99,North,0,0.7,3.1,99,0.00,,,0.00,pywws,2013-10-18 10:31:00,
2013-10-18 11:36:00,53.2,53.0,29.99,SE,135,1.6,2.2,99,0.00,,,0.00,pywws,2013-10-18 10:36:00,
2013-10-18 11:41:00,53.6,53.3,29.99,North,0,0.7,1.6,99,0.00,,,0.00,pywws,2013-10-18 10:41:00,
2013-10-18 11:46:00,53.8,53.5,29.98,North,0,1.6,3.1,99,0.00,,,0.00,pywws,2013-10-18 10:46:00,
2013-10-18 12:00:00,54.0,53.7,29.98,North,0,2.2,4.5,99,0.00,,,0.00,pywws,2013-10-18 11:00:00,
2013-10-18 12:01:00,54.5,54.2,29.98,ENE,68,0.7,1.6,99,0.00,,,0.00,pywws,2013-10-18 11:01:00,
2013-10-18 12:06:00,54.7,54.4,29.98,East,90,2.2,6.0,99,0.00,,,0.00,pywws,2013-10-18 11:06:00,
2013-10-18 12:11:00,54.9,54.6,29.98,North,0,1.6,2.2,99,0.00,,,0.00,pywws,2013-10-18 11:11:00,
2013-10-18 12:16:00,54.9,54.6,29.98,North,0,0.0,1.6,99,0.00,,,0.00,pywws,2013-10-18 11:16:00,
2013-10-18 12:21:00,55.0,54.8,29.98,West,270,1.6,3.1,99,0.00,,,0.00,pywws,2013-10-18 11:21:00,
2013-10-18 12:26:00,54.9,54.6,29.98,NW,315,0.0,3.1,99,0.00,,,0.00,pywws,2013-10-18 11:26:00,
2013-10-18 12:31:00,54.9,54.6,29.97,NE,45,0.7,2.2,99,0.00,,,0.00,pywws,2013-10-18 11:31:00,
2013-10-18 12:36:00,54.5,53.9,29.97,ENE,68,1.6,3.8,98,0.00,,,0.00,pywws,2013-10-18 11:36:00,
2013-10-18 12:41:00,54.3,53.8,29.97,East,90,0.7,3.8,98,0.00,,,0.00,pywws,2013-10-18 11:41:00,
2013-10-18 12:46:00,54.1,53.6,29.96,NE,45,2.2,4.5,98,0.00,,,0.00,pywws,2013-10-18 11:46:00,
2013-10-18 13:00:00,54.0,53.7,29.96,North,0,0.7,2.2,99,0.00,,,0.00,pywws,2013-10-18 12:00:00,
2013-10-18 13:01:00,53.8,53.5,29.96,North,0,2.2,3.1,99,0.00,,,0.00,pywws,2013-10-18 12:01:00,
2013-10-18 13:06:00,53.8,53.5,29.96,West,270,0.0,0.7,99,0.00,,,0.00,pywws,2013-10-18 12:06:00,
2013-10-18 13:11:00,53.8,53.5,29.96,West,270,1.6,3.1,99,0.00,,,0.00,pywws,2013-10-18 12:11:00,
2013-10-18 13:16:00,53.8,53.5,29.95,SSE,158,0.7,1.6,99,0.00,,,0.00,pywws,2013-10-18 12:16:00,
2013-10-18 13:21:00,53.6,53.3,29.95,NW,315,0.7,3.1,99,0.00,,,0.00,pywws,2013-10-18 12:21:00,
2013-10-18 13:26:00,53.6,53.3,29.95,South,180,0.0,1.6,99,0.00,,,0.00,pywws,2013-10-18 12:26:00,
2013-10-18 13:31:00,53.8,53.5,29.95,North,0,0.7,2.2,99,0.00,,,0.00,pywws,2013-10-18 12:31:00,
2013-10-18 13:36:00,53.8,53.5,29.94,North,0,0.7,2.2,99,0.00,,,0.00,pywws,2013-10-18 12:36:00,
2013-10-18 13:41:00,53.8,53.5,29.94,North,0,0.7,1.6,99,0.00,,,0.00,pywws,2013-10-18 12:41:00,
2013-10-18 13:46:00,53.8,53.5,29.94,North,0,0.0,0.7,99,0.00,,,0.00,pywws,2013-10-18 12:46:00,
2013-10-18 14:00:00,53.8,53.5,29.94,East,90,0.0,1.6,99,0.00,,,0.00,pywws,2013-10-18 13:00:00,
2013-10-18 14:01:00,53.8,53.5,29.94,NW,315,0.0,1.6,99,0.00,,,0.00,pywws,2013-10-18 13:01:00,
2013-10-18 14:06:00,53.8,53.5,29.93,North,0,0.0,0.7,99,0.00,,,0.00,pywws,2013-10-18 13:06:00,
2013-10-18 14:11:00,53.8,53.5,29.93,North,0,0.7,3.8,99,0.00,,,0.00,pywws,2013-10-18 13:11:00,
2013-10-18 14:16:00,53.8,53.5,29.93,SE,135,0.0,0.7,99,0.00,,,0.00,pywws,2013-10-18 13:16:00,
2013-10-18 14:21:00,53.8,53.5,29.93,NE,45,0.7,3.1,99,0.00,,,0.00,pywws,2013-10-18 13:21:00,
2013-10-18 14:26:00,53.8,53.5,29.93,NE,45,0.0,0.7,99,0.00,,,0.00,pywws,2013-10-18 13:26:00,
2013-10-18 14:31:00,53.6,53.3,29.93,South,180,0.7,2.2,99,0.00,,,0.00,pywws,2013-10-18 13:31:00,
2013-10-18 14:36:00,53.6,53.3,29.93,SW,225,2.2,5.4,99,0.00,,,0.00,pywws,2013-10-18 13:36:00,
2013-10-18 14:41:00,53.4,53.1,29.93,SE,135,0.0,1.6,99,0.00,,,0.00,pywws,2013-10-18 13:41:00,
2013-10-18 14:46:00,53.4,53.1,29.93,NE,45,0.7,3.1,99,0.00,,,0.00,pywws,2013-10-18 13:46:00,
2013-10-18 15:00:00,53.2,53.0,29.92,South,180,0.0,3.1,99,0.00,,,0.00,pywws,2013-10-18 14:00:00,
2013-10-18 15:01:00,53.2,53.0,29.92,East,90,0.7,3.8,99,0.00,,,0.00,pywws,2013-10-18 14:01:00,
2013-10-18 15:06:00,53.2,53.0,29.92,NW,315,0.0,1.6,99,0.00,,,0.00,pywws,2013-10-18 14:06:00,
2013-10-18 15:11:00,53.2,53.0,29.91,NW,315,0.0,1.6,99,0.00,,,0.00,pywws,2013-10-18 14:11:00,
2013-10-18 15:16:00,53.4,53.1,29.91,East,90,0.7,4.5,99,0.00,,,0.00,pywws,2013-10-18 14:16:00,
2013-10-18 15:21:00,53.4,53.1,29.91,North,0,0.0,1.6,99,0.00,,,0.00,pywws,2013-10-18 14:21:00,
2013-10-18 15:26:00,53.6,53.3,29.91,North,0,0.7,2.2,99,0.00,,,0.00,pywws,2013-10-18 14:26:00,
2013-10-18 15:31:00,53.6,53.3,29.91,North,0,0.7,1.6,99,0.00,,,0.00,pywws,2013-10-18 14:31:00,
2013-10-18 15:36:00,53.6,53.3,29.91,NW,315,0.0,1.6,99,0.00,,,0.00,pywws,2013-10-18 14:36:00,
2013-10-18 15:41:00,53.4,53.1,29.90,NE,45,0.7,2.2,99,0.00,,,0.00,pywws,2013-10-18 14:41:00,
2013-10-18 15:46:00,53.4,53.1,29.90,NW,315,0.7,2.2,99,0.00,,,0.00,pywws,2013-10-18 14:46:00,
2013-10-18 16:00:00,53.2,53.0,29.90,NW,315,0.7,1.6,99,0.00,,,0.00,pywws,2013-10-18 15:00:00,
2013-10-18 16:01:00,53.2,53.0,29.89,East,90,0.0,1.6,99,0.00,,,0.00,pywws,2013-10-18 15:01:00,
2013-10-18 16:06:00,53.2,53.0,29.89,NW,315,0.0,1.6,99,0.00,,,0.00,pywws,2013-10-18 15:06:00,
2013-10-18 16:11:00,53.2,53.0,29.89,SW,225,0.0,2.2,99,0.00,,,0.00,pywws,2013-10-18 15:11:00,
2013-10-18 16:16:00,53.2,53.0,29.89,SE,135,0.0,0.0,99,0.00,,,0.00,pywws,2013-10-18 15:16:00,
2013-10-18 16:21:00,53.2,53.0,29.89,South,180,0.7,1.6,99,0.00,,,0.00,pywws,2013-10-18 15:21:00,
2013-10-18 16:26:00,53.2,53.0,29.89,SE,135,0.0,2.2,99,0.00,,,0.00,pywws,2013-10-18 15:26:00,
2013-10-18 16:31:00,53.2,53.0,29.88,North,0,0.7,2.2,99,0.00,,,0.00,pywws,2013-10-18 15:31:00,
2013-10-18 16:36:00,53.1,52.8,29.88,SE,135,0.0,0.7,99,0.00,,,0.00,pywws,2013-10-18 15:36:00,
2013-10-18 16:41:00,53.1,52.8,29.87,SW,225,0.7,3.1,99,0.00,,,0.00,pywws,2013-10-18 15:41:00,
2013-10-18 16:46:00,53.1,52.8,29.87,North,0,0.7,1.6,99,0.00,,,0.00,pywws,2013-10-18 15:46:00,
2013-10-18 17:00:00,53.1,52.8,29.86,NW,315,0.0,0.7,99,0.00,,,0.00,pywws,2013-10-18 16:00:00,
2013-10-18 17:01:00,53.1,52.8,29.86,West,270,2.2,6.0,99,0.00,,,0.00,pywws,2013-10-18 16:01:00,
2013-10-18 17:06:00,53.1,52.8,29.86,South,180,0.7,1.6,99,0.00,,,0.00,pywws,2013-10-18 16:06:00,
2013-10-18 17:11:00,53.1,52.8,29.86,NW,315,0.0,1.6,99,0.00,,,0.00,pywws,2013-10-18 16:11:00,
2013-10-18 17:16:00,53.1,52.8,29.86,SW,225,0.7,2.2,99,0.00,,,0.00,pywws,2013-10-18 16:16:00,
2013-10-18 17:21:00,52.9,52.6,29.86,South,180,0.7,3.1,99,0.00,,,0.00,pywws,2013-10-18 16:21:00,
2013-10-18 17:26:00,52.9,52.6,29.85,ENE,68,0.7,2.2,99,0.00,,,0.00,pywws,2013-10-18 16:26:00,
2013-10-18 17:31:00,53.1,52.8,29.85,NW,315,0.7,2.2,99,0.00,,,0.00,pywws,2013-10-18 16:31:00,
2013-10-18 17:36:00,52.9,52.6,29.85,NE,45,0.0,3.8,99,0.00,,,0.00,pywws,2013-10-18 16:36:00,
2013-10-18 17:41:00,52.9,52.6,29.85,NW,315,0.0,2.2,99,0.00,,,0.00,pywws,2013-10-18 16:41:00,
2013-10-18 17:46:00,52.9,52.6,29.85,NW,315,1.6,3.8,99,0.00,,,0.00,pywws,2013-10-18 16:46:00,
2013-10-18 18:00:00,53.1,52.8,29.85,West,270,0.7,5.4,99,0.00,,,0.00,pywws,2013-10-18 17:00:00,
2013-10-18 18:01:00,52.9,52.6,29.84,North,0,0.0,2.2,99,0.00,,,0.00,pywws,2013-10-18 17:01:00,
2013-10-18 18:06:00,52.9,52.6,29.84,North,0,0.0,0.7,99,0.00,,,0.00,pywws,2013-10-18 17:06:00,
2013-10-18 18:11:00,52.9,52.6,29.84,SW,225,1.6,4.5,99,0.00,,,0.00,pywws,2013-10-18 17:11:00,
2013-10-18 18:16:00,52.9,52.6,29.84,North,0,0.7,2.2,99,0.00,,,0.00,pywws,2013-10-18 17:16:00,
2013-10-18 18:21:00,52.7,52.4,29.84,West,270,0.7,2.2,99,0.00,,,0.00,pywws,2013-10-18 17:21:00,
2013-10-18 18:26:00,52.7,52.4,29.84,West,270,0.0,0.7,99,0.00,,,0.00,pywws,2013-10-18 17:26:00,
2013-10-18 18:31:00,52.5,52.2,29.83,South,180,0.7,1.6,99,0.00,,,0.00,pywws,2013-10-18 17:31:00,
2013-10-18 18:36:00,52.5,52.2,29.83,SW,225,0.0,0.7,99,0.00,,,0.00,pywws,2013-10-18 17:36:00,
2013-10-18 18:41:00,52.5,52.2,29.83,East,90,0.0,0.7,99,0.00,,,0.00,pywws,2013-10-18 17:41:00,
2013-10-18 18:46:00,52.3,52.1,29.83,East,90,0.0,0.7,99,0.00,,,0.00,pywws,2013-10-18 17:46:00,
2013-10-18 19:00:00,52.3,52.1,29.82,SSW,202,0.0,2.2,99,0.00,,,0.00,pywws,2013-10-18 18:00:00,
2013-10-18 19:01:00,52.2,51.9,29.82,South,180,0.0,1.6,99,0.00,,,0.00,pywws,2013-10-18 18:01:00,
2013-10-18 19:06:00,52.2,51.9,29.81,North,0,0.0,1.6,99,0.00,,,0.00,pywws,2013-10-18 18:06:00,
2013-10-18 19:11:00,52.2,51.9,29.81,South,180,0.0,0.7,99,0.00,,,0.00,pywws,2013-10-18 18:11:00,
2013-10-18 19:16:00,52.2,51.9,29.82,South,180,0.0,1.6,99,0.00,,,0.00,pywws,2013-10-18 18:16:00,
2013-10-18 19:21:00,52.2,51.9,29.81,SW,225,0.0,0.7,99,0.00,,,0.00,pywws,2013-10-18 18:21:00,
2013-10-18 19:26:00,52.0,51.7,29.81,North,0,0.0,0.7,99,0.00,,,0.00,pywws,2013-10-18 18:26:00,
2013-10-18 19:31:00,52.0,51.7,29.81,East,90,0.7,1.6,99,0.00,,,0.00,pywws,2013-10-18 18:31:00,
2013-10-18 19:36:00,52.0,51.7,29.81,West,270,0.0,0.7,99,0.00,,,0.00,pywws,2013-10-18 18:36:00,
2013-10-18 19:41:00,52.0,51.7,29.81,North,0,0.0,1.6,99,0.00,,,0.00,pywws,2013-10-18 18:41:00,
2013-10-18 19:46:00,52.0,51.7,29.81,NE,45,0.7,1.6,99,0.00,,,0.00,pywws,2013-10-18 18:46:00,
2013-10-18 20:00:00,52.0,51.7,29.80,NW,315,0.0,0.0,99,0.00,,,0.00,pywws,2013-10-18 19:00:00,
2013-10-18 20:01:00,52.0,51.7,29.80,West,270,0.0,0.0,99,0.00,,,0.00,pywws,2013-10-18 19:01:00,
2013-10-18 20:06:00,52.0,51.7,29.80,West,270,0.0,0.7,99,0.00,,,0.00,pywws,2013-10-18 19:06:00,
2013-10-18 20:11:00,52.0,51.7,29.80,NE,45,0.0,0.7,99,0.00,,,0.00,pywws,2013-10-18 19:11:00,
2013-10-18 20:16:00,52.0,51.7,29.80,NW,315,0.0,0.7,99,0.00,,,0.00,pywws,2013-10-18 19:16:00,
2013-10-18 20:21:00,52.0,51.7,29.80,NW,315,0.7,3.8,99,0.00,,,0.00,pywws,2013-10-18 19:21:00,
2013-10-18 20:26:00,52.2,51.9,29.80,NE,45,0.0,0.7,99,0.00,,,0.00,pywws,2013-10-18 19:26:00,
2013-10-18 20:31:00,52.2,51.9,29.79,SE,135,0.0,0.7,99,0.00,,,0.00,pywws,2013-10-18 19:31:00,
2013-10-18 20:36:00,52.2,51.9,29.79,North,0,0.0,0.7,99,0.00,,,0.00,pywws,2013-10-18 19:36:00,
2013-10-18 20:41:00,52.2,51.9,29.79,South,180,0.0,0.7,99,0.00,,,0.00,pywws,2013-10-18 19:41:00,
2013-10-18 20:46:00,52.2,51.9,29.79,NW,315,0.0,0.7,99,0.00,,,0.00,pywws,2013-10-18 19:46:00,
2013-10-18 21:00:00,52.2,51.9,29.78,SW,225,0.0,1.6,99,0.00,,,0.00,pywws,2013-10-18 20:00:00,
2013-10-18 21:01:00,52.2,51.9,29.77,East,90,0.0,1.6,99,0.00,,,0.00,pywws,2013-10-18 20:01:00,
2013-10-18 21:06:00,52.2,51.9,29.77,SE,135,0.0,0.7,99,0.00,,,0.00,pywws,2013-10-18 20:06:00,
2013-10-18 21:11:00,52.3,52.1,29.78,SW,225,0.0,2.2,99,0.00,,,0.00,pywws,2013-10-18 20:11:00,
2013-10-18 21:16:00,52.3,52.1,29.78,East,90,0.0,0.7,99,0.00,,,0.00,pywws,2013-10-18 20:16:00,
2013-10-18 21:21:00,52.3,52.1,29.77,East,90,0.0,1.6,99,0.00,,,0.00,pywws,2013-10-18 20:21:00,
2013-10-18 21:26:00,52.5,52.2,29.77,NW,315,0.0,0.7,99,0.00,,,0.00,pywws,2013-10-18 20:26:00,
2013-10-18 21:31:00,52.5,52.2,29.77,North,0,0.0,0.7,99,0.00,,,0.00,pywws,2013-10-18 20:31:00,
2013-10-18 21:36:00,52.5,52.2,29.77,SW,225,0.0,0.7,99,0.00,,,0.00,pywws,2013-10-18 20:36:00,
2013-10-18 21:41:00,52.5,52.2,29.77,SW,225,0.0,1.6,99,0.00,,,0.00,pywws,2013-10-18 20:41:00,
2013-10-18 21:46:00,52.5,52.2,29.77,WNW,292,0.0,0.7,99,0.00,,,0.00,pywws,2013-10-18 20:46:00,
2013-10-18 22:00:00,52.7,52.4,29.77,ESE,112,0.0,0.7,99,0.00,,,0.00,pywws,2013-10-18 21:00:00,
2013-10-18 22:01:00,52.9,52.6,29.76,South,180,0.7,2.2,99,0.00,,,0.00,pywws,2013-10-18 21:01:00,
2013-10-18 22:06:00,52.9,52.6,29.76,South,180,0.0,0.7,99,0.00,,,0.00,pywws,2013-10-18 21:06:00,
2013-10-18 22:11:00,52.9,52.6,29.76,SW,225,0.7,2.2,99,0.00,,,0.00,pywws,2013-10-18 21:11:00,
2013-10-18 22:16:00,53.1,52.8,29.76,North,0,0.7,5.4,99,0.00,,,0.00,pywws,2013-10-18 21:16:00,
2013-10-18 22:21:00,53.1,52.8,29.75,NW,315,0.7,3.1,99,0.00,,,0.00,pywws,2013-10-18 21:21:00,
2013-10-18 22:26:00,53.1,52.8,29.75,South,180,0.0,2.2,99,0.00,,,0.00,pywws,2013-10-18 21:26:00,
2013-10-18 22:31:00,53.2,53.0,29.75,North,0,0.0,1.6,99,0.00,,,0.00,pywws,2013-10-18 21:31:00,
2013-10-18 22:36:00,53.2,53.0,29.74,SW,225,1.6,3.8,99,0.00,,,0.00,pywws,2013-10-18 21:36:00,
2013-10-18 22:41:00,53.4,53.1,29.74,North,0,0.0,1.6,99,0.00,,,0.00,pywws,2013-10-18 21:41:00,
2013-10-18 22:46:00,53.4,53.1,29.74,NNE,22,0.0,1.6,99,0.00,,,0.00,pywws,2013-10-18 21:46:00,
2013-10-18 23:00:00,53.4,53.1,29.74,North,0,0.0,0.7,99,0.00,,,0.00,pywws,2013-10-18 22:00:00,
2013-10-18 23:01:00,53.6,53.3,29.74,NE,45,1.6,3.8,99,0.00,,,0.00,pywws,2013-10-18 22:01:00,
2013-10-18 23:06:00,53.6,53.3,29.73,North,0,0.7,1.6,99,0.00,,,0.00,pywws,2013-10-18 22:06:00,
2013-10-18 23:11:00,53.6,53.3,29.72,NW,315,0.0,1.6,99,0.00,,,0.00,pywws,2013-10-18 22:11:00,
2013-10-18 23:16:00,53.6,53.3,29.73,SW,225,0.0,1.6,99,0.00,,,0.00,pywws,2013-10-18 22:16:00,
2013-10-18 23:21:00,53.8,53.5,29.72,NW,315,0.0,0.7,99,0.00,,,0.00,pywws,2013-10-18 22:21:00,
2013-10-18 23:26:00,53.8,53.5,29.72,East,90,0.0,1.6,99,0.00,,,0.00,pywws,2013-10-18 22:26:00,
2013-10-18 23:31:00,53.8,53.5,29.72,North,0,0.0,1.6,99,0.00,,,0.00,pywws,2013-10-18 22:31:00,
2013-10-18 23:36:00,53.8,53.5,29.72,North,0,0.0,1.6,99,0.00,,,0.00,pywws,2013-10-18 22:36:00,
2013-10-18 23:41:00,53.8,53.5,29.71,North,0,0.0,0.7,99,0.00,,,0.00,pywws,2013-10-18 22:41:00,
2013-10-18 23:46:00,54.0,53.7,29.71,South,180,0.0,1.6,99,0.00,,,0.00,pywws,2013-10-18 22:46:00,